FW5910 Weather Reports


time (UTC)temp
F
wind
direction
speed
knots
gust
knots
rain 1hr
in
rain 24hr
in
rain mn
in
humidity
%
barometer
mb
20260901014904 71 226 0.0 0.0 0.00 0.00 0.00 40 1012.6
20260901014402 71 226 0.0 0.0 0.00 0.00 0.00 40 1012.7
20260901013905 71 226 0.0 0.0 0.00 0.00 0.00 40 1012.8
20260901013402 72 226 0.0 0.0 0.00 0.00 0.00 39 1012.8
20260901012905 72 251 0.0 0.9 0.00 0.00 0.00 39 1012.8
20260901010903 74 249 0.9 4.3 0.00 0.00 0.00 37 1012.9
20260901010401 74 254 0.9 4.3 0.00 0.00 0.00 37 1012.8
20260901005900 74 226 0.9 4.3 0.00 0.00 0.00 38 1012.8
20260901005400 74 174 0.9 4.3 0.00 0.00 0.00 36 1013.0
20260901004356 75 218 0.9 4.3 0.00 0.00 0.00 35 1013.0
20260901003855 75 147 0.0 3.5 0.00 0.00 0.00 35 1013.0
20260901003354 75 199 0.0 3.5 0.00 0.00 0.00 35 1013.1
20260901002854 76 227 0.0 3.5 0.00 0.00 0.00 36 1013.2
20260901002358 76 155 0.9 4.3 0.00 0.00 0.00 35 1013.2
20260901001852 77 225 0.9 4.3 0.00 0.00 0.00 34 1013.3
20260901001349 77 192 0.9 2.6 0.00 0.00 0.00 34 1013.4
20260901000850 76 179 0.9 4.3 0.00 0.00 0.00 35 1013.4
20260901000347 76 198 0.9 4.3 0.00 0.00 0.00 35 1013.4
20260831235848 76 232 0.9 3.5 0.00 0.00 0.00 37 1013.6
20260831235346 76 161 0.9 3.5 0.00 0.00 0.00 35 1013.6
20260831234345 76 278 0.9 3.5 0.00 0.00 0.00 35 1013.7
20260831233847 76 236 0.9 3.5 0.00 0.00 0.00 36 1013.7
20260831233345 77 202 0.9 2.6 0.00 0.00 0.00 35 1013.7
20260831232840 77 220 0.9 1.7 0.00 0.00 0.00 35 1013.8
20260831232344 78 272 0.9 2.6 0.00 0.00 0.00 36 1013.8
20260831231842 78 232 0.9 2.6 0.00 0.00 0.00 34 1013.8
20260831231340 78 46 0.9 5.2 0.00 0.00 0.00 34 1013.8
20260831230842 79 138 0.9 5.2 0.00 0.00 0.00 32 1013.9
20260831230345 80 270 0.9 3.5 0.00 0.00 0.00 32 1014.0
20260831225343 80 331 0.9 2.6 0.00 0.00 0.00 32 1014.0
20260831224341 80 174 0.9 3.5 0.00 0.00 0.00 32 1014.1
20260831223840 79 229 0.9 3.5 0.00 0.00 0.00 33 1014.1
20260831223340 79 250 0.9 3.5 0.00 0.00 0.00 33 1014.1
20260831222837 78 238 0.9 5.2 0.00 0.00 0.00 35 1014.0
20260831222337 77 227 1.7 5.2 0.00 0.00 0.00 34 1014.1
20260831221837 77 215 1.7 4.3 0.00 0.00 0.00 35 1014.1
20260831221337 77 37 1.7 6.1 0.00 0.00 0.00 35 1014.2
20260831215833 76 72 1.7 5.2 0.00 0.00 0.00 40 1014.3
20260831214834 77 336 0.9 2.6 0.00 0.00 0.00 36 1014.5
20260831214333 77 75 0.9 2.6 0.00 0.00 0.00 38 1014.5
20260831213832 78 9 0.0 1.7 0.00 0.00 0.00 38 1014.6
20260831213334 77 222 0.0 1.7 0.00 0.00 0.00 37 1014.6
20260831212832 76 94 0.9 3.5 0.00 0.00 0.00 41 1014.9
20260831212333 74 57 2.6 6.1 0.00 0.00 0.00 40 1014.9
20260831211333 76 76 0.9 4.3 0.00 0.00 0.00 38 1015.1
20260831210832 76 309 0.9 3.5 0.00 0.00 0.00 37 1015.2
20260831210331 75 52 0.9 3.5 0.00 0.00 0.00 39 1015.3
20260831205834 75 30 1.7 4.3 0.00 0.00 0.00 42 1015.4
20260831205330 75 128 0.9 4.3 0.00 0.00 0.00 38 1015.4
20260831204832 76 333 0.9 2.6 0.00 0.00 0.00 37 1015.5
20260831204333 76 211 0.9 2.6 0.00 0.00 0.00 39 1015.6
20260831203831 74 76 1.7 6.1 0.00 0.00 0.00 38 1015.7
20260831203330 75 350 1.7 6.1 0.00 0.00 0.00 38 1015.9
20260831202831 76 190 0.9 5.2 0.00 0.00 0.00 38 1015.7
20260831202330 74 221 1.7 5.2 0.00 0.00 0.00 40 1015.9
20260831201832 73 87 1.7 3.5 0.00 0.00 0.00 41 1015.9
20260831201333 75 83 0.9 2.6 0.00 0.00 0.00 40 1016.0
20260831200832 74 37 0.9 2.6 0.00 0.00 0.00 41 1016.1
20260831200330 73 33 0.9 3.5 0.00 0.00 0.00 40 1016.1
20260831195330 73 86 1.7 3.5 0.00 0.00 0.00 42 1016.2
20260831194837 72 336 1.7 3.5 0.00 0.00 0.00 41 1016.2
20260831194331 72 56 1.7 3.5 0.00 0.00 0.00 43 1016.2
20260831193831 73 65 0.9 3.5 0.00 0.00 0.00 43 1016.3
20260831193330 72 40 0.9 2.6 0.00 0.00 0.00 42 1016.4
20260831192830 71 89 1.7 3.5 0.00 0.00 0.00 44 1016.5
20260831192330 71 86 1.7 3.5 0.00 0.00 0.00 43 1016.4
20260831191832 71 88 1.7 3.5 0.00 0.00 0.00 42 1016.6
20260831190831 71 98 1.7 5.2 0.00 0.00 0.00 44 1016.7
20260831190334 71 69 1.7 5.2 0.00 0.00 0.00 42 1016.8
20260831185330 71 109 0.9 3.5 0.00 0.00 0.00 41 1017.1
20260831184334 70 348 1.7 5.2 0.00 0.00 0.00 41 1017.1
20260831183836 71 69 1.7 7.0 0.00 0.00 0.00 40 1017.2
20260831183333 72 201 0.9 7.0 0.00 0.00 0.00 40 1017.4
20260831182833 71 248 0.9 4.3 0.00 0.00 0.00 42 1017.4
20260831182331 71 159 1.7 4.3 0.00 0.00 0.00 41 1017.5
20260831181331 70 154 0.9 4.3 0.00 0.00 0.00 44 1017.5
20260831180834 70 311 1.7 6.1 0.00 0.00 0.00 41 1017.5
20260831180331 70 202 0.9 6.1 0.00 0.00 0.00 41 1017.6
20260831175835 70 281 0.9 3.5 0.00 0.00 0.00 43 1017.6
20260831175331 69 164 1.7 3.5 0.00 0.00 0.00 42 1017.5
20260831174332 69 268 0.9 5.2 0.00 0.00 0.00 42 1017.6
20260831173331 68 227 0.9 3.5 0.00 0.00 0.00 45 1017.7
20260831172835 67 86 0.9 4.3 0.00 0.00 0.00 44 1017.7
20260831172334 67 275 0.9 4.3 0.00 0.00 0.00 43 1017.6
20260831171830 66 184 1.7 7.0 0.00 0.00 0.00 46 1017.7
20260831171330 66 153 1.7 7.0 0.00 0.00 0.00 45 1017.8
20260831170831 65 173 1.7 6.1 0.00 0.00 0.00 45 1017.7
20260831170333 65 222 1.7 6.1 0.00 0.00 0.00 46 1017.8
20260831165831 65 243 1.7 4.3 0.00 0.00 0.00 48 1018.0
20260831165330 65 234 0.9 4.3 0.00 0.00 0.00 48 1018.0
20260831164831 65 47 0.9 3.5 0.00 0.01 0.00 48 1018.0
20260831163832 64 213 0.9 3.5 0.00 0.01 0.00 51 1018.0
20260831163330 64 206 0.9 3.5 0.00 0.01 0.00 50 1018.0
20260831162332 64 215 0.0 2.6 0.00 0.01 0.00 52 1018.1
20260831161839 63 233 0.9 2.6 0.00 0.01 0.00 54 1018.1
20260831161335 62 275 0.9 2.6 0.00 0.01 0.00 53 1018.0
20260831160832 62 238 0.0 2.6 0.00 0.01 0.00 54 1018.1
20260831160330 62 273 0.0 2.6 0.00 0.01 0.00 55 1018.0
20260831155831 61 167 0.0 1.7 0.00 0.01 0.00 58 1018.1
20260831155331 60 217 0.9 2.6 0.00 0.01 0.00 58 1018.1
20260831154830 60 235 0.9 2.6 0.00 0.01 0.00 60 1018.1
20260831154331 60 233 0.0 1.7 0.00 0.02 0.00 60 1018.3
20260831153330 59 225 0.0 1.7 0.00 0.02 0.00 60 1018.4
20260831152832 59 351 0.0 0.9 0.00 0.02 0.00 61 1018.3
20260831152329 58 351 0.0 0.9 0.00 0.02 0.00 61 1018.3
20260831151821 58 154 0.0 3.5 0.00 0.02 0.00 61 1018.1
20260831151315 57 269 0.9 3.5 0.00 0.02 0.00 62 1018.0
20260831150302 56 170 0.0 2.6 0.00 0.02 0.00 66 1018.0
20260831145808 56 238 0.9 3.5 0.00 0.02 0.00 66 1018.0
20260831145306 55 14 0.9 3.5 0.00 0.02 0.00 69 1017.9
20260831144806 55 10 0.0 0.9 0.00 0.02 0.00 78 1018.0
20260831144308 55 355 0.0 0.9 0.00 0.02 0.00 78 1017.9
20260831143809 54 131 0.0 0.9 0.00 0.02 0.00 73 1018.0
20260831143308 54 131 0.0 0.9 0.00 0.02 0.00 74 1018.0
20260831142804 54 131 0.0 0.9 0.00 0.02 0.00 75 1017.9
20260831142306 54 222 0.0 0.9 0.00 0.02 0.00 76 1018.0
20260831141304 54 220 0.0 0.9 0.00 0.02 0.00 79 1017.7
20260831140804 54 44 0.0 0.9 0.00 0.02 0.00 78 1017.7
20260831140305 53 218 0.0 0.0 0.00 0.02 0.00 78 1017.7
20260831135306 53 218 0.0 0.9 0.00 0.02 0.00 77 1017.6
20260831134803 53 218 0.0 0.9 0.00 0.02 0.00 77 1017.5
20260831134304 53 218 0.0 0.9 0.00 0.02 0.00 76 1017.5
20260831133312 53 218 0.0 0.0 0.00 0.02 0.00 77 1017.5
20260831132806 52 218 0.0 0.9 0.00 0.02 0.00 77 1017.5
20260831131806 52 218 0.0 0.0 0.00 0.02 0.00 77 1017.4
20260831131304 52 218 0.0 0.0 0.00 0.02 0.00 78 1017.4
20260831130802 52 218 0.0 0.0 0.00 0.02 0.00 79 1017.4
20260831130304 53 218 0.0 0.9 0.00 0.02 0.00 82 1017.3
20260831125803 53 217 0.0 0.9 0.00 0.02 0.00 80 1017.3
20260831124803 53 296 0.0 0.9 0.00 0.02 0.00 80 1017.3
20260831124303 53 297 0.0 0.9 0.00 0.02 0.00 79 1017.3
20260831123305 53 319 0.0 0.9 0.00 0.02 0.00 81 1017.2
20260831122804 53 318 0.0 0.9 0.00 0.02 0.00 81 1017.3
20260831122305 53 355 0.0 0.9 0.00 0.02 0.00 77 1017.1
20260831121802 53 191 0.0 0.0 0.00 0.02 0.00 82 1017.1
20260831120803 52 262 0.0 0.0 0.00 0.02 0.00 86 1017.2
20260831120302 53 262 0.0 0.0 0.00 0.02 0.00 86 1017.1
20260831115802 53 246 0.0 0.0 0.00 0.02 0.00 86 1017.1
20260831115306 53 237 0.0 0.0 0.00 0.02 0.00 85 1016.9
20260831114805 53 237 0.0 0.0 0.00 0.02 0.00 82 1017.1
20260831113805 53 237 0.0 0.0 0.00 0.02 0.00 86 1017.1
20260831112802 53 237 0.0 0.0 0.00 0.02 0.00 85 1016.9
20260831112307 53 237 0.0 0.0 0.00 0.02 0.00 83 1017.1
20260831111803 53 237 0.0 0.0 0.00 0.02 0.00 83 1016.9
20260831111303 53 237 0.0 0.0 0.00 0.02 0.00 85 1016.9
20260831110308 53 237 0.0 0.0 0.00 0.02 0.00 83 1016.8
20260831105804 53 237 0.0 0.0 0.00 0.02 0.00 84 1016.8
20260831104804 53 237 0.0 0.0 0.00 0.02 0.00 84 1016.8
20260831104304 53 241 0.0 0.0 0.00 0.02 0.00 85 1016.8
20260831103804 53 241 0.0 0.0 0.00 0.02 0.00 87 1016.8
20260831103303 53 256 0.0 0.0 0.00 0.02 0.00 85 1016.7
20260831102802 53 256 0.0 0.0 0.00 0.02 0.00 85 1016.6
20260831102306 53 256 0.0 0.0 0.00 0.02 0.00 86 1016.6
20260831101806 53 256 0.0 0.0 0.00 0.02 0.00 86 1016.6
20260831100307 54 256 0.0 0.0 0.00 0.02 0.00 84 1016.4
20260831095809 54 256 0.0 0.0 0.00 0.02 0.00 85 1016.4
20260831095309 54 256 0.0 0.0 0.00 0.02 0.00 84 1016.4
20260831094310 54 256 0.0 0.0 0.00 0.02 0.00 84 1016.4
20260831093308 54 256 0.0 0.0 0.00 0.02 0.00 84 1016.5
20260831092804 54 256 0.0 0.0 0.00 0.02 0.00 83 1016.4
20260831091757 54 256 0.0 0.0 0.00 0.02 0.00 82 1016.4
20260831091252 54 256 0.0 0.0 0.00 0.02 0.00 82 1016.5
20260831090246 54 256 0.0 0.0 0.00 0.02 0.00 81 1016.4
20260831085748 54 256 0.0 0.0 0.00 0.02 0.00 82 1016.4
20260831085245 54 256 0.0 0.0 0.00 0.02 0.00 82 1016.4
20260831084745 54 256 0.0 0.0 0.00 0.02 0.00 82 1016.4
20260831084241 54 11 0.0 0.0 0.00 0.02 0.00 81 1016.4
20260831083742 54 11 0.0 0.0 0.00 0.02 0.00 82 1016.5
20260831083237 54 11 0.0 0.0 0.00 0.02 0.00 81 1016.5
20260831082736 54 11 0.0 0.0 0.00 0.02 0.00 81 1016.5
20260831082233 54 11 0.0 0.0 0.00 0.02 0.00 81 1016.4
20260831081733 54 11 0.0 0.0 0.00 0.02 0.00 82 1016.3
20260831080731 54 11 0.0 0.0 0.00 0.02 0.00 83 1016.3
20260831080233 54 11 0.0 0.0 0.00 0.02 0.00 82 1016.2
20260831074733 54 11 0.0 0.0 0.00 0.02 0.00 82 1016.2
20260831074230 54 11 0.0 0.0 0.00 0.02 0.00 82 1016.2
20260831073734 54 11 0.0 0.0 0.00 0.02 0.00 82 1016.2
20260831073230 54 11 0.0 0.0 0.00 0.02 0.00 82 1016.2
20260831072738 54 11 0.0 0.0 0.00 0.02 0.00 81 1016.2
20260831072233 54 11 0.0 0.0 0.00 0.02 0.00 81 1016.2
20260831071732 54 11 0.0 0.0 0.00 0.02 0.00 80 1016.2
20260831071232 54 11 0.0 0.0 0.00 0.02 0.00 81 1016.1
20260831070735 54 11 0.0 0.0 0.00 0.02 0.00 80 1016.2
20260831065732 55 11 0.0 0.9 0.00 0.02 0.00 80 1016.3
20260831065231 55 273 0.0 0.9 0.00 0.02 0.00 79 1016.3
20260831064732 55 273 0.0 0.9 0.00 0.02 0.00 78 1016.3
20260831064232 55 273 0.0 0.9 0.00 0.02 0.00 78 1016.3
20260831063730 55 273 0.0 0.9 0.00 0.02 0.00 78 1016.3
20260831063233 55 273 0.0 0.9 0.00 0.02 0.00 76 1016.4
20260831062731 55 273 0.0 0.9 0.00 0.02 0.00 75 1016.3
20260831062232 55 273 0.0 0.9 0.00 0.02 0.00 74 1016.3
20260831061230 57 273 0.0 0.9 0.00 0.02 0.00 74 1016.4
20260831060731 57 165 0.0 0.0 0.00 0.02 0.00 70 1016.4
20260831060235 57 165 0.0 0.0 0.00 0.02 0.00 69 1016.4
20260831055735 57 165 0.0 0.0 0.00 0.02 0.02 68 1016.4
20260831055231 57 165 0.0 0.0 0.00 0.02 0.02 68 1016.4
20260831054733 57 164 0.0 0.0 0.00 0.02 0.02 69 1016.5
20260831054231 57 165 0.0 0.0 0.00 0.02 0.02 71 1016.4
20260831053731 57 164 0.0 0.0 0.00 0.02 0.02 72 1016.5
20260831053234 57 200 0.0 0.0 0.00 0.02 0.02 71 1016.5
20260831052731 57 200 0.0 0.0 0.00 0.02 0.02 70 1016.5
20260831051730 57 200 0.0 0.0 0.00 0.02 0.02 68 1016.6
20260831051232 57 200 0.0 0.0 0.00 0.02 0.02 70 1016.7
20260831050731 57 200 0.0 0.0 0.00 0.02 0.02 70 1016.8
20260831050234 57 200 0.0 0.0 0.00 0.02 0.02 70 1016.8
20260831045731 57 184 0.0 0.0 0.00 0.02 0.02 71 1016.8
20260831044733 57 228 0.0 0.0 0.00 0.02 0.02 71 1016.8
20260831043735 57 228 0.0 0.0 0.00 0.02 0.02 73 1016.8
20260831043230 57 229 0.0 0.0 0.00 0.02 0.02 73 1016.8
20260831041727 57 112 0.0 0.0 0.00 0.02 0.02 74 1016.7
20260831041225 58 112 0.0 0.9 0.00 0.02 0.02 73 1016.6
20260831040724 57 112 0.0 0.9 0.00 0.02 0.02 73 1016.6
20260831040224 57 112 0.0 0.9 0.00 0.02 0.02 71 1016.5
20260831035723 56 113 0.0 0.9 0.00 0.02 0.02 71 1016.4
20260831035226 56 113 0.0 0.0 0.00 0.02 0.02 72 1016.5
20260831034723 56 113 0.0 0.0 0.00 0.02 0.02 73 1016.5
20260831034224 56 113 0.0 0.0 0.00 0.02 0.02 72 1016.4
20260831033220 57 113 0.0 0.9 0.00 0.02 0.02 75 1016.5
20260831032719 57 112 0.0 0.9 0.00 0.02 0.02 76 1016.4
20260831032216 57 112 0.0 0.9 0.00 0.02 0.02 75 1016.5
20260831031715 57 112 0.0 0.9 0.00 0.02 0.02 75 1016.5
20260831031217 57 113 0.0 0.9 0.00 0.02 0.02 73 1016.5
20260831030714 57 111 0.0 0.9 0.00 0.02 0.02 73 1016.4
20260831030210 57 111 0.0 0.9 0.00 0.02 0.02 72 1016.3
20260831025708 57 111 0.0 0.9 0.00 0.02 0.02 71 1016.2
20260831024706 57 147 0.0 0.9 0.00 0.02 0.02 70 1016.1
20260831024209 57 147 0.0 0.9 0.00 0.02 0.02 70 1016.0
20260831023709 57 147 0.0 0.0 0.00 0.02 0.02 73 1016.0
20260831023205 57 147 0.0 0.0 0.00 0.02 0.02 69 1016.0
20260831022704 57 147 0.0 0.9 0.00 0.02 0.02 69 1015.9
20260831022204 57 147 0.0 0.9 0.00 0.02 0.02 72 1015.7
20260831021702 58 147 0.0 0.0 0.00 0.02 0.02 72 1015.6
20260831021203 58 147 0.0 0.9 0.00 0.02 0.02 72 1015.7
20260831020704 58 147 0.0 0.9 0.00 0.02 0.02 74 1015.6
20260831020203 58 99 0.0 0.0 0.00 0.02 0.02 69 1015.6
20260831015703 59 99 0.0 0.0 0.00 0.02 0.02 70 1015.6
20260831015203 59 99 0.0 0.9 0.00 0.02 0.02 67 1015.5